Location: Izdebno
(52.6670°N, 16.2170°E)
Time: 10:56:41
(UTC+02:00)

A-11 Canister half - Pass Details

Date: 29 February 2024
Orbit: 1513 x 1686 km, 47.2° (Epoch: 24 April)

Event Time Altitude Azimuth Distance (km) Brightness Sun altitude
Exits shadow 04:10:40 37° 252° (WSW) 2,394 9.4 -23.7°
Maximum altitude 04:15:05 64° 186° (S) 1,796 9.1 -23.0°
Drops below altitude 10° 04:24:43 10° 108° (ESE) 3,831 11.8 -21.6°
Sets 04:27:48 0° 106° (ESE) 4,792 12.6 -21.2°
